Regional Weather Roundup
Issued by NWS Cleveland, OH

Home | Current Version | Previous Version | Text Only | Print | Product List | Glossary Off
Versions: 1 2 3 4 5 6 7 8 9 10 11 12 13 14 15 16 17 18 19 20 21 22 23 24 25 26 27 28 29 30 31 32 33 34 35 36 37 38 39 40 41 42 43 44 45 46 47 48 49 50

000
ASUS41 KCLE 221812
RWRCLE
OHIO REGIONAL WEATHER ROUNDUP
NATIONAL WEATHER SERVICE WILMINGTON, OH
100 PM EST WED NOV 22 2017

NOTE: "FAIR" INDICATES FEW OR NO CLOUDS BELOW 12,000 FEET WITH NO
SIGNIFICANT WEATHER AND/OR OBSTRUCTIONS TO VISIBILITY.

OHZ001>008-015>018-024>027-034-035-043-044-221900-
   NORTHWEST OHIO

CITY           SKY/WX    TMP DP  RH WIND       PRES   REMARKS
DEFIANCE       FAIR      33  18  53 VRB5      30.29F WCI  29
FINDLAY        CLOUDY    34  20  56 NW8       30.27F WCI  27
TOLEDO EXPRESS PTSUNNY   36  19  50 W7        30.27F
TOLEDO EXEC    PTSUNNY   34  15  46 W5        30.28F WCI  30
LIMA           CLOUDY    33  21  61 NW10      30.27F WCI  25
$$

OHZ009>014-019>023-028>033-038-089-221900-
   NORTHEAST OHIO

CITY           SKY/WX    TMP DP  RH WIND       PRES   REMARKS
CLE-HOPKINS    CLOUDY    34  21  59 W10       30.27S WCI  26
CLE-LAKEFRONT  CLOUDY    34  22  61 NW13G20   30.24S WCI  25
CUY CO. ARPT   CLOUDY    34  19  55 N12       30.23F WCI  25
LORAIN-ELYRIA  CLOUDY    32  17  54 N8        30.26S WCI  25
ASHTABULA      CLOUDY    33  22  63 NW12      30.21S WCI  24
AKRON-CANTON   CLOUDY    33  23  66 NW9       30.21S WCI  25
WOOSTER        CLOUDY    33  21  61 NW10      30.23S WCI  25
MANSFIELD      CLOUDY    31  22  69 NW9       30.23F WCI  23
YOUNGSTOWN     FLURRIES  33  23  66 NW10      30.19R WCI  25
$$

OHZ042-051>053-060>062-070>072-077>081-221900-
  SOUTHWEST OHIO

CITY           SKY/WX    TMP DP  RH WIND       PRES   REMARKS
CINC-COVINGTON PTSUNNY   38  27  64 N8        30.28F
CINC-LUNKEN    CLOUDY    38  26  62 N8        30.31F
HAMILTON       CLOUDY    37  27  67 NW8       30.31F
DAYTON         PTSUNNY   36  23  59 NW9G18    30.28F
WRIGHT-PAT AFB PTSUNNY   35  19  51 N6        30.28S
DAYTON GENERAL CLOUDY    36  22  56 VRB3      30.27F
WILMINGTON     CLOUDY    35  23  61 VRB3      30.27S
$$

OHZ036-037-039>041-045>050-054>059-063>069-073>076-082>088-221900-
  CENTRAL AND SOUTHEAST OHIO

CITY           SKY/WX    TMP DP  RH WIND       PRES   REMARKS
COLUMBUS       CLOUDY    35  25  66 N8        30.26S WCI  29
OSU AIRPORT    CLOUDY    34  23  64 NW10      30.26S WCI  26
BOLTON FIELD   CLOUDY    34  25  69 N7        30.26F WCI  28
RICKENBACK AFB CLOUDY    35  23  60 N7        30.26F WCI  29
NEWARK         CLOUDY    36  21  54 NW8       30.24F
MARION         CLOUDY    32  20  61 NW8       30.27F WCI  25
LANCASTER      CLOUDY    37  24  59 NW10      30.25F
ZANESVILLE     CLOUDY    36  25  64 NW8       30.23F
NEW PHILLY     CLOUDY    35  25  66 NW8       30.24S WCI  29
$$



USA.gov is the U.S. government's official web portal to all federal, state and local government web resources and services.